Regional Weather Roundup
Issued by NWS Wakefield, VA

Home | Current Version | Previous Version | Graphics & Text | Print | Product List | Glossary On
Versions: 1 2 3 4 5 6 7 8 9 10 11 12 13 14 15 16 17 18 19 20 21 22 23 24 25 26 27
000
ASUS41 KAKQ 021115
RWRAKQ

REGIONAL WEATHER ROUNDUP
NATIONAL WEATHER SERVICE WAKEFIELD VA
600 AM EST FRI DEC 02 2016

Note: "fair" indicates few or no clouds below 12,000 feet with no
significant weather and/or obstructions to visibility. * = Denotes
station may not report precipitation (e.g., rain,snow,etc.),
thunder or fog.

VAZ042-051-052>054-056-021200-
NORTHERN VIRGINIA

CITY           SKY/WX    TMP DP  RH WIND       PRES   REMARKS
WASH NATIONAL  MOCLDY    45  27  49 W6        30.03R
DULLES         PTCLDY    43  26  51 NW7       30.02R
FORT BELVOIR   PTCLDY    33  29  83 CALM      30.03R
QUANTICO       CLEAR     35  31  85 NW8       30.05R
FREDERICKSBRG* CLEAR     31  31 100 CALM      30.04R
STAFFORD*      PTCLDY    28  28 100 CALM      30.08R
WARRENTON      CLEAR     30  25  82 CALM      30.03R
CULPEPER*      MOCLDY    31  29  94 CALM      30.05R
MANASSAS*      PTCLDY    36  34  93 CALM      30.04R
LEESBURG*      CLOUDY    43  32  65 NW7       30.04R
WINCHESTER     PTCLDY    39  25  56 NW9       30.02R
FRONT ROYAL*   CLOUDY    43  28  56 NW8G16    30.01S
LURAY*         CLOUDY    43  30  61 SW3       30.02R
$$

VAZ048-049-060>072-079>083-021200-
CENTRAL AND SOUTH CENTRAL VIRGINIA

CITY           SKY/WX    TMP DP  RH WIND       PRES   REMARKS
RICHMOND       CLEAR     34  29  82 CALM      30.05R
CHESTERFIELD*  FAIR      32  16  51 CALM      30.06R
PETERSBURG*    CLEAR     29  28  95 CALM      30.07R
HANOVER        CLEAR     32  29  88 CALM      30.06R
TAPPAHANNOCK*  CLEAR     31  31 100 CALM      30.06R
QUINTON*       FAIR      32  32 100 CALM      30.06R
CHARLOTTSVILLE PTCLDY    36  28  73 CALM      30.03R
GORDONSVILLE*  FAIR      29  29  99 CALM      30.03R
ORANGE*          N/A     30  30 100 CALM      30.05R
LOUISA*        CLEAR     32  30  93 CALM      30.02R
BUMPASS*       FAIR      29  29  98 CALM      30.04R
FARMVILLE*     PTCLDY    30  30  97 SW3       30.05R
CREWE*         FAIR      30  30 100 CALM      30.05S
FORT PICKETT*  FAIR      32  29  88 CALM      30.06R
CHASE CITY*    FAIR      31  29  94 CALM      30.07R
CLARKSVILLE*   FAIR      32  32 100 CALM      30.07R
SOUTH HILL*    CLEAR     29  29  99 CALM      30.12R
LAWRENCEVILLE* FAIR      31  30  96 CALM      30.07R
EMPORIA*       PTCLDY    30  28  93 CALM      30.09R
$$

VAZ088>098-021200-
SOUTHEAST VIRGINIA

CITY           SKY/WX    TMP DP  RH WIND       PRES   REMARKS
NORFOLK        PTCLDY    45  34  65 W3        30.05R
VIRGINIA BEACH PTCLDY    42  30  62 N7        30.04R
NORFOLK NAVAL  CLEAR     43  35  73 NW7       30.07R
WEST POINT*    CLEAR     32  31  97 CALM      30.08R
SALUDA*        FAIR      34  32  93 CALM      30.05R
NEWPORT NEWS   CLEAR     31  30  96 CALM      30.06R
LANGLEY AFB    CLEAR     37  33  85 W3        30.05R
FORT EUSTIS    PTCLDY    37  31  81 CALM      30.04R
WILLIAMSBURG*  CLEAR     37  34  87 CALM      30.07R
HR EXEC AP*    FAIR      28  27  93 CALM      30.05R
FRANKLIN*      PTCLDY    33  31  95 CALM      30.08R
US460-WAKEFLD  PTCLDY    31  29  92 CALM      30.06R
$$

VAZ020-022-025-037-045-021200-
WEST CENTRAL AND SOUTHWEST VIRGINIA

CITY           SKY/WX    TMP DP  RH WIND       PRES   REMARKS
STAUNTON*      PTCLDY    34  30  84 CALM      30.04R
WAYNESBORO*    FAIR      38  26  63 W5        30.02R
HOT SPRINGS VA CLOUDY    32  27  80 W17G28    29.95R WCI  21
LYNCHBURG      CLEAR     29  26  89 CALM      30.06R
DANVILLE       PTCLDY    29  29 100 SW3       30.08R
SOUTH BOSTON*  FAIR      30  29  96 CALM      30.08R
MARTINSVILLE   CLOUDY    28  27  94 CALM      30.10R
ROANOKE        CLEAR     42  27  55 NW13G23   30.08R
BLACKSBURG     CLEAR     36  29  76 W6        30.09R
DUBLIN*        CLEAR     37  29  73 W12G17    30.09R
MARION*        CLEAR     32  30  93 SW12      30.10R WCI  23
HILLSVILLE*    CLOUDY    33  28  83 W10G17    30.05R WCI  24
RICHLANDS*     FAIR      32  28  83 SW6       30.10R
WISE*          PTCLDY    32  27  80 SW5       30.11R
ABINGDON*      CLEAR     32  31  97 W3        30.13R
$$

MDZ021>025-VAZ099-100-021200-
SOUTHERN MARYLAND AND THE DELMARVA PENINSULA

CITY           SKY/WX    TMP DP  RH WIND       PRES   REMARKS
PATUXENT RIVER PTCLDY    31  28  89 W5        30.03R
BAY BRIDGE APT CLEAR     45  27  49 W10G20    30.01R
LEONARDTOWN    CLEAR     32  30  93 CALM      30.04R
DOVER          CLEAR     40  29  65 SW7       29.98R
GEORGETOWN     CLEAR     40  29  64 W5        30.00S
EASTON         CLEAR     45  27  49 NW10      30.04R
CAMBRIDGE      CLEAR     43  27  52 NW12G18   30.01R
SALISBURY      CLEAR     31  29  92 CALM      30.01S
OCEAN CITY     CLEAR     34  30  85 W5        30.01R
WALLOPS ISLAND CLEAR     38  33  82 NW6       30.03R
ACCOMACK*      PTCLDY    45  31  59 N6        30.04R
$$

NCZ012>017-030>032-021200-
NORTH CENTRAL AND EASTERN NORTH CAROLINA

CITY           SKY/WX    TMP DP  RH WIND       PRES   REMARKS
ROANOKE RAPIDS FAIR      32  32 100 CALM      30.08R
RALEIGH        PTCLDY    34  30  85 CALM      30.09R
ELIZABETH CITY PTCLDY    38  34  85 W5        30.06R
AHOSKIE*       PTCLDY    33  32  96 CALM      30.08R
EDENTON*       PTCLDY    41  37  83 CALM      30.07R
CURRITUCK*     PTCLDY    42  37  80 CALM      30.06R
KILL DEVIL HLS PTCLDY    49  41  74 N5        30.03R
MANTEO         PTCLDY    48  39  71 NE9       30.04R
CAPE HATTERAS  CLEAR     52  44  74 N8        30.02R
TARBORO*       NOT AVBL
GOLDSBORO      PTCLDY    38  34  84 CALM      30.07R
WASHINGTON       N/A     38  33  81 CALM      30.08R
GREENVILLE     PTCLDY    36  34  93 CALM      30.09R
NEW BERN       CLEAR     43  33  68 N8        30.08R
WILMINGTON     CLEAR     42  35  76 N5        30.08R
$$

VAZ048-021200-
ELSEWHERE

CITY           SKY/WX    TMP DP  RH WIND       PRES   REMARKS
HARRISBURG PA  PTCLDY    42  30  62 W14       29.96R
BALTIMORE      MOCLDY    42  26  53 W12       30.00R
ANNAPOLIS      PTCLDY    46  26  45 VRB5      30.01R
ANDREWS AFB    PTCLDY    42  26  52 W9        30.01R
PHILADELPHIA   PTCLDY    40  29  64 SW9       29.97R
GREENSBORO     CLEAR     39  30  70 CALM      30.08R
ROCKY MOUNT    PTCLDY    35  34  96 CALM      30.08R
$$

VAZ100-021200-
MARINE

STATION/POSITION TIME  TEMP    WIND        PRES    WAVE   SWELL
                       AIR SEA DIR/SP/G            HT/PER HT/PER
                 (UTC) (F)     (DEG/KT/KT) (MB)    (FT/S) (FT/S)
BRANDYWINE LGT   1048   44     300/ 18/ 23   N/A
CAPE MAY NJ      1048   45 50  300/ 14/ 18 1014.8R
LEWES DE         1048   40 51  250/  6/  7 1015.4R
OCEAN-CITY-INLET 1042   39 52  290/  5/  7 1016.3S
WACHAPREAGUE VA  1048   44 54  320/  2/  5 1017.1R
THOMAS POINT MD  1100   45 51  300/ 15/ 17   N/A
GOOSES REEF MD   1100   46 51  320/ 12/ 14 1017.2    1/ 2
COVE POINT MD    1048   43     320/  6/ 10 1017.3R
SOLOMONS ISLAND  1042   42 52  290/  1/  3   N/A
BISHOPS HEAD MD  1048   43 50  320/  6/  9 1016.9R
PINEY POINT MD   1048          350/  6/  7   N/A
POTOMAC MD       1100   45 52  330/  6/  6 1016.2    1/ 2
CAMBRIDGE MD     1048   46 48  290/ 15/ 21 1015.6R
LEWISETTA VA     1048   41 53  250/  5/  6 1016.8R
RAPPAHANNOCK LGT 1048          340/ 12/ 14 1017.7R
STINGRAY PT      1100   46     340/ 10/ 12 1017.8    1
YORK RVR RNG VA  1048   45     320/  6/  7 1017.1R
YORKTOWN VA      1048   42 53  250/  3/  4 1017.2R
JAMESTOWN VA     1100   42 53  240/  6/  6   N/A     0
DOMINION TERM VA 1048   46      CALM  /  2 1017.7R
KIPTOPEKE VA     1048      54  360/  9/ 14   N/A
CHES BAY BRIDGE  1048   48 54  330/ 11/ 13 1017.2R
CAPE HENRY VA    1048   48     340/ 14/ 16   N/A
WILLOUBY STN VA  1048   45     330/  6/  7 1018.5R
S CRANEY ISL VA  1048   44     260/  3/  4 1017.3R
CAPE HENRY BUOY  1042      56                N/A     3/ 5
1ST LANDING BUOY 1100   48 53              1017.6    2/ 3
CAPE CHARLES BUO 1056      56                N/A     3/ 5
OFFSHORE WE BUOY 1051      57                N/A     4/ 5
64NM E OF VA BCH 1050   51 59  360/ 17/ 21 1016.2R   5/ 6   2/ 9
DUCK PIER NC     1048   50 57   10/ 10/ 15 1016.6R
44100 DUCK FRF   1035      57                N/A     5/ 5
OREGON INLET NC  1042   50 60   10/ 10/ 15 1016.7R
HATTERAS NC      1048   53 63   10/ 16/ 18 1016.3R
DIAMOND SHLS NC  1050   58 76  340/ 14/ 17 1016.2    3/ 8   3/ 8
CAPE LOOKOUT NC  1000   49     340/ 14/ 16 1016.7R
$$




USA.gov is the U.S. government's official web portal to all federal, state and local government web resources and services.